EW2670 Weather Reports


Display with metric or nautical units.
time (UTC)temp
F
wind
direction
speed
MPH
gust
MPH
rain 1hr
in
rain 24hr
in
rain mn
in
humidity
%
barometer
mb
20181018201016 61 112 1.0 5.0 0.00 0.00 0.00 37 1018.0
20181018200516 61 0.0 2.0 0.00 0.00 0.00 40 1018.1
20181018200016 61 112 2.0 5.0 0.00 0.00 0.00 38 1018.3
20181018195516 61 0.0 2.0 0.00 0.00 0.00 38 1018.3
20181018195016 61 0.0 0.0 0.00 0.00 0.00 40 1018.4
20181018194518 61 0.0 0.0 0.00 0.00 0.00 41 1018.5
20181018194016 60 0.0 3.0 0.00 0.00 0.00 40 1018.5
20181018193516 60 0.0 0.0 0.00 0.00 0.00 41 1018.6
20181018193016 60 90 1.0 6.0 0.00 0.00 0.00 42 1018.8
20181018192516 60 0.0 6.0 0.00 0.00 0.00 43 1018.8
20181018192016 60 0.0 2.0 0.00 0.00 0.00 44 1018.9
20181018191516 60 0.0 0.0 0.00 0.00 0.00 43 1019.0
20181018191016 60 0.0 0.0 0.00 0.00 0.00 44 1019.3
20181018190516 59 0.0 0.0 0.00 0.00 0.00 44 1019.3
20181018190015 59 0.0 1.0 0.00 0.00 0.00 44 1019.3
20181018185515 58 0.0 0.0 0.00 0.00 0.00 44 1019.3
20181018185015 58 0.0 0.0 0.00 0.00 0.00 44 1019.3
20181018184516 57 0.0 0.0 0.00 0.00 0.00 44 1019.5
20181018184016 57 0.0 0.0 0.00 0.00 0.00 44 1019.5
20181018183516 57 0.0 0.0 0.00 0.00 0.00 45 1019.8
20181018183021 57 0.0 0.0 0.00 0.00 0.00 47 1019.8
20181018182515 56 0.0 0.0 0.00 0.00 0.00 46 1019.7
20181018182015 56 0.0 0.0 0.00 0.00 0.00 47 1019.8
20181018181516 56 0.0 0.0 0.00 0.00 0.00 48 1019.9
20181018181016 55 0.0 0.0 0.00 0.00 0.00 48 1019.9
20181018180515 55 0.0 0.0 0.00 0.00 0.00 48 1020.1
20181018180015 55 0.0 0.0 0.00 0.00 0.00 48 1020.1
20181018175516 55 0.0 0.0 0.00 0.00 0.00 49 1020.2
20181018175015 55 0.0 0.0 0.00 0.00 0.00 52 1020.3
20181018174515 54 0.0 0.0 0.00 0.00 0.00 52 1020.4
20181018174015 54 0.0 0.0 0.00 0.00 0.00 52 1020.5
20181018173515 53 0.0 0.0 0.00 0.00 0.00 52 1020.5
20181018173016 53 0.0 0.0 0.00 0.00 0.00 54 1020.5
20181018172517 53 0.0 0.0 0.00 0.00 0.00 54 1020.7
20181018172017 52 0.0 0.0 0.00 0.00 0.00 55 1020.8
20181018171517 52 0.0 0.0 0.00 0.00 0.00 55 1020.7
20181018171018 51 0.0 0.0 0.00 0.00 0.00 56 1020.8
20181018170517 51 0.0 0.0 0.00 0.00 0.00 56 1020.8
20181018170018 51 0.0 0.0 0.00 0.00 0.00 56 1021.0
20181018165517 51 0.0 0.0 0.00 0.00 0.00 60 1021.2
20181018165021 50 0.0 0.0 0.00 0.00 0.00 60 1021.1
20181018164517 50 0.0 0.0 0.00 0.00 0.00 62 1021.2
20181018164017 49 0.0 0.0 0.00 0.00 0.00 65 1021.3
20181018163517 49 0.0 0.0 0.00 0.00 0.00 64 1021.2
20181018163017 49 0.0 0.0 0.00 0.00 0.00 66 1021.4
20181018162517 48 0.0 0.0 0.00 0.00 0.00 69 1021.6
20181018162018 48 0.0 0.0 0.00 0.00 0.00 68 1021.6
20181018161517 48 0.0 0.0 0.00 0.00 0.00 68 1021.6
20181018161017 47 0.0 0.0 0.00 0.00 0.00 69 1021.8
20181018160517 47 0.0 0.0 0.00 0.00 0.00 69 1021.8
20181018160017 46 0.0 0.0 0.00 0.00 0.00 71 1021.8
20181018155517 46 0.0 0.0 0.00 0.00 0.00 71 1021.9
20181018155017 45 0.0 0.0 0.00 0.00 0.00 73 1022.0
20181018154518 45 0.0 0.0 0.00 0.00 0.00 72 1022.0
20181018154017 45 0.0 0.0 0.00 0.00 0.00 74 1022.1
20181018153517 45 0.0 0.0 0.00 0.00 0.00 74 1022.1
20181018153017 44 0.0 0.0 0.00 0.00 0.00 74 1022.4
20181018152517 44 0.0 0.0 0.00 0.00 0.00 75 1022.2
20181018152017 44 0.0 0.0 0.00 0.00 0.00 76 1022.3
20181018151517 43 0.0 0.0 0.00 0.00 0.00 77 1022.3
20181018151017 43 0.0 0.0 0.00 0.00 0.00 77 1022.3
20181018150518 43 0.0 0.0 0.00 0.00 0.00 80 1022.3
20181018150017 42 0.0 0.0 0.00 0.00 0.00 80 1022.3
20181018145517 41 0.0 0.0 0.00 0.00 0.00 79 1022.3
20181018145017 41 0.0 0.0 0.00 0.00 0.00 79 1022.2
20181018144517 41 0.0 0.0 0.00 0.00 0.00 81 1022.4
20181018144026 40 0.0 0.0 0.00 0.00 0.00 84 1022.2
20181018143517 39 0.0 0.0 0.00 0.00 0.00 86 1022.3
20181018143017 38 0.0 0.0 0.00 0.00 0.00 88 1022.4
20181018142517 38 0.0 0.0 0.00 0.00 0.00 89 1022.4
20181018142017 37 0.0 0.0 0.00 0.00 0.00 92 1022.3
20181018141517 36 0.0 0.0 0.00 0.00 0.00 93 1022.1
20181018141017 35 0.0 0.0 0.00 0.00 0.00 93 1022.1
20181018140518 34 0.0 0.0 0.00 0.00 0.00 94 1021.9
20181018140018 33 0.0 0.0 0.00 0.00 0.00 94 1021.9
20181018135517 32 0.0 0.0 0.00 0.00 0.00 94 1021.9
20181018135017 31 0.0 0.0 0.00 0.00 0.00 93 1021.9
20181018134517 31 0.0 0.0 0.00 0.00 0.00 93 1022.0
20181018134017 31 0.0 0.0 0.00 0.00 0.00 93 1022.0
20181018133517 31 0.0 0.0 0.00 0.00 0.00 93 1022.1
20181018133017 31 0.0 0.0 0.00 0.00 0.00 93 1022.1
20181018132518 31 0.0 0.0 0.00 0.00 0.00 93 1022.1
20181018132017 31 0.0 0.0 0.00 0.00 0.00 93 1022.2
20181018131517 31 0.0 0.0 0.00 0.00 0.00 93 1022.2
20181018131018 31 0.0 0.0 0.00 0.00 0.00 94 1022.2
20181018130517 31 0.0 0.0 0.00 0.00 0.00 94 1022.3
20181018130017 31 0.0 0.0 0.00 0.00 0.00 94 1022.5
20181018125517 31 0.0 0.0 0.00 0.00 0.00 95 1022.3
20181018125017 30 0.0 0.0 0.00 0.00 0.00 93 1022.2
20181018124517 30 0.0 0.0 0.00 0.00 0.00 93 1022.4
20181018124017 30 0.0 0.0 0.00 0.00 0.00 93 1022.5
20181018123517 30 0.0 0.0 0.00 0.00 0.00 93 1022.5
20181018123017 30 0.0 0.0 0.00 0.00 0.00 92 1022.5
20181018122517 30 0.0 0.0 0.00 0.00 0.00 93 1022.5
20181018122017 29 0.0 0.0 0.00 0.00 0.00 93 1022.5
20181018121517 29 0.0 0.0 0.00 0.00 0.00 92 1022.5
20181018121017 30 0.0 0.0 0.00 0.00 0.00 92 1022.6
20181018120516 30 0.0 0.0 0.00 0.00 0.00 92 1022.7
20181018120018 30 0.0 0.0 0.00 0.00 0.00 91 1022.5
20181018115517 30 0.0 0.0 0.00 0.00 0.00 91 1022.9
20181018115017 31 0.0 0.0 0.00 0.00 0.00 93 1022.6
20181018114517 30 0.0 0.0 0.00 0.00 0.00 92 1022.4
20181018114017 30 0.0 0.0 0.00 0.00 0.00 91 1022.6
20181018113517 30 0.0 0.0 0.00 0.00 0.00 91 1022.8
20181018113017 31 0.0 0.0 0.00 0.00 0.00 92 1022.7
20181018112517 30 0.0 0.0 0.00 0.00 0.00 91 1022.6
20181018112017 30 0.0 0.0 0.00 0.00 0.00 91 1022.7
20181018111517 31 0.0 0.0 0.00 0.00 0.00 90 1022.6
20181018111016 31 0.0 0.0 0.00 0.00 0.00 91 1022.7
20181018110517 31 0.0 0.0 0.00 0.00 0.00 89 1022.7
20181018110017 32 0.0 0.0 0.00 0.00 0.00 89 1022.8
20181018105517 32 0.0 0.0 0.00 0.00 0.00 91 1022.7
20181018105016 32 0.0 0.0 0.00 0.00 0.00 92 1022.7
20181018104517 32 0.0 0.0 0.00 0.00 0.00 92 1022.7
20181018104017 32 0.0 0.0 0.00 0.00 0.00 90 1022.9
20181018103517 31 0.0 0.0 0.00 0.00 0.00 88 1022.8
20181018103017 32 0.0 0.0 0.00 0.00 0.00 88 1022.9
20181018102517 33 0.0 0.0 0.00 0.00 0.00 89 1023.0
20181018102016 33 0.0 0.0 0.00 0.00 0.00 90 1023.1
20181018101516 33 0.0 0.0 0.00 0.00 0.00 90 1023.0
20181018101017 33 0.0 0.0 0.00 0.00 0.00 90 1023.1
20181018100516 32 0.0 0.0 0.00 0.00 0.00 88 1023.1
20181018100017 32 0.0 0.0 0.00 0.00 0.00 88 1023.1
20181018095516 33 0.0 0.0 0.00 0.00 0.00 88 1023.0
20181018095016 34 0.0 0.0 0.00 0.00 0.00 90 1023.3
20181018094516 33 0.0 0.0 0.00 0.00 0.00 90 1023.2
20181018094017 33 0.0 0.0 0.00 0.00 0.00 87 1023.2
20181018093517 33 0.0 0.0 0.00 0.00 0.00 85 1023.4
20181018093017 34 0.0 0.0 0.00 0.00 0.00 84 1023.4
20181018092517 35 0.0 0.0 0.00 0.00 0.00 85 1023.5
20181018092017 35 0.0 0.0 0.00 0.00 0.00 85 1023.5
20181018091016 36 0.0 0.0 0.00 0.00 0.00 84 1023.6
20181018090516 36 0.0 0.0 0.00 0.00 0.00 84 1023.5
20181018090016 36 0.0 0.0 0.00 0.00 0.00 85 1023.6
20181018085517 35 0.0 0.0 0.00 0.00 0.00 85 1023.7
20181018085016 35 0.0 0.0 0.00 0.00 0.00 84 1023.8
20181018084517 35 0.0 0.0 0.00 0.00 0.00 85 1023.7
20181018084016 35 0.0 0.0 0.00 0.00 0.00 85 1023.7
20181018083517 35 0.0 0.0 0.00 0.00 0.00 85 1023.7
20181018083017 35 0.0 0.0 0.00 0.00 0.00 85 1023.7
20181018082516 35 0.0 0.0 0.00 0.00 0.00 84 1023.8
20181018082016 36 0.0 0.0 0.00 0.00 0.00 84 1023.7
20181018081516 36 0.0 0.0 0.00 0.00 0.00 84 1023.8
20181018081016 36 0.0 0.0 0.00 0.00 0.00 84 1023.8
20181018080516 36 0.0 0.0 0.00 0.00 0.00 85 1023.7
20181018080016 36 0.0 0.0 0.00 0.00 0.00 84 1023.7
20181018075517 36 0.0 0.0 0.00 0.00 0.00 83 1023.7
20181018075016 36 0.0 0.0 0.00 0.00 0.00 84 1023.8
20181018074516 36 0.0 0.0 0.00 0.00 0.00 83 1023.9
20181018074016 36 0.0 0.0 0.00 0.00 0.00 83 1023.9
20181018073516 36 0.0 0.0 0.00 0.00 0.00 84 1023.8
20181018073016 36 0.0 0.0 0.00 0.00 0.00 85 1023.7
20181018072516 35 0.0 0.0 0.00 0.00 0.00 85 1023.7
20181018072016 35 0.0 0.0 0.00 0.00 0.00 85 1023.6
20181018071517 35 0.0 0.0 0.00 0.00 0.00 84 1023.6
20181018071016 35 0.0 0.0 0.00 0.00 0.00 84 1023.7
20181018070516 36 0.0 0.0 0.00 0.00 0.00 85 1023.7
20181018070016 35 0.0 0.0 0.00 0.00 0.00 86 1023.8
20181018065516 35 0.0 0.0 0.00 0.00 0.00 86 1023.7
20181018065016 35 0.0 0.0 0.00 0.00 0.00 86 1023.6
20181018064516 35 0.0 0.0 0.00 0.00 0.00 85 1023.8
20181018064016 36 0.0 0.0 0.00 0.00 0.00 86 1023.9
20181018063516 36 0.0 0.0 0.00 0.00 0.00 87 1024.0
20181018063016 35 0.0 0.0 0.00 0.00 0.00 88 1024.2
20181018062516 35 0.0 0.0 0.00 0.00 0.00 88 1024.1
20181018062016 34 0.0 0.0 0.00 0.00 0.00 88 1024.0
20181018061516 34 0.0 0.0 0.00 0.00 0.00 85 1024.0
20181018061016 35 0.0 0.0 0.00 0.00 0.00 86 1024.0
20181018060516 35 0.0 0.0 0.00 0.00 0.00 87 1023.9
20181018060016 35 0.0 0.0 0.00 0.00 0.00 86 1024.1
20181018055517 35 0.0 0.0 0.00 0.00 0.00 87 1024.0
20181018055018 35 0.0 0.0 0.00 0.00 0.00 86 1024.1
20181018054517 35 0.0 0.0 0.00 0.00 0.00 85 1024.1
20181018054017 35 0.0 0.0 0.00 0.00 0.00 86 1024.1
20181018053518 36 0.0 0.0 0.00 0.00 0.00 86 1023.9
20181018053017 36 0.0 0.0 0.00 0.00 0.00 85 1024.1
20181018052517 36 0.0 0.0 0.00 0.00 0.00 86 1024.1
20181018052017 36 0.0 0.0 0.00 0.00 0.00 85 1024.1
20181018051517 36 0.0 0.0 0.00 0.00 0.00 84 1024.2
20181018051017 37 0.0 0.0 0.00 0.00 0.00 83 1024.3
20181018050517 37 0.0 0.0 0.00 0.00 0.00 81 1024.3
20181018050017 38 0.0 0.0 0.00 0.00 0.00 79 1024.4
20181018045517 38 0.0 0.0 0.00 0.00 0.00 78 1024.5
20181018045017 38 0.0 0.0 0.00 0.00 0.00 79 1024.5
20181018044517 38 0.0 0.0 0.00 0.00 0.00 78 1024.5
20181018044017 38 0.0 0.0 0.00 0.00 0.00 80 1024.5
20181018043517 38 0.0 0.0 0.00 0.00 0.00 81 1024.4
20181018043017 38 0.0 0.0 0.00 0.00 0.00 79 1024.5
20181018042517 38 0.0 0.0 0.00 0.00 0.00 79 1024.6
20181018042017 38 0.0 0.0 0.00 0.00 0.00 79 1024.4
20181018041517 39 0.0 0.0 0.00 0.00 0.00 78 1024.5
20181018041017 39 0.0 0.0 0.00 0.00 0.00 78 1024.7
20181018040517 39 0.0 0.0 0.00 0.00 0.00 78 1024.8
20181018040017 40 0.0 0.0 0.00 0.00 0.00 77 1024.9
20181018035521 40 0.0 0.0 0.00 0.00 0.00 78 1024.9
20181018035017 40 0.0 0.0 0.00 0.00 0.00 79 1025.0
20181018034517 40 0.0 0.0 0.00 0.00 0.00 77 1025.1
20181018034018 41 0.0 0.0 0.00 0.00 0.00 75 1025.1
20181018033517 41 0.0 0.0 0.00 0.00 0.00 74 1025.1
20181018033017 42 0.0 0.0 0.00 0.00 0.00 74 1025.1
20181018032517 42 0.0 0.0 0.00 0.00 0.00 70 1025.1
20181018032017 43 0.0 0.0 0.00 0.00 0.00 69 1025.1
20181018031517 43 0.0 0.0 0.00 0.00 0.00 70 1025.0
20181018031017 42 0.0 0.0 0.00 0.00 0.00 72 1025.1
20181018030516 41 0.0 0.0 0.00 0.00 0.00 73 1024.8
20181018030016 41 0.0 0.0 0.00 0.00 0.00 73 1024.8
20181018025516 41 0.0 0.0 0.00 0.00 0.00 73 1024.7
20181018025017 42 0.0 0.0 0.00 0.00 0.00 71 1024.7
20181018024517 42 0.0 0.0 0.00 0.00 0.00 71 1024.7
20181018024017 43 0.0 0.0 0.00 0.00 0.00 68 1024.9
20181018023517 44 0.0 0.0 0.00 0.00 0.00 66 1024.8
20181018023017 45 0.0 0.0 0.00 0.00 0.00 65 1024.8
20181018022516 46 0.0 0.0 0.00 0.00 0.00 64 1024.9
20181018022016 46 0.0 0.0 0.00 0.00 0.00 64 1024.9
20181018021516 47 0.0 0.0 0.00 0.00 0.00 61 1024.8
20181018021017 48 0.0 0.0 0.00 0.00 0.00 58 1025.0
20181018020516 48 0.0 0.0 0.00 0.00 0.00 58 1025.0
20181018020016 49 0.0 0.0 0.00 0.00 0.00 57 1024.9
20181018015517 49 0.0 0.0 0.00 0.00 0.00 56 1025.1
20181018015017 50 0.0 0.0 0.00 0.00 0.00 55 1024.9
20181018014516 50 0.0 2.0 0.00 0.00 0.00 54 1025.0
20181018014016 50 0.0 0.0 0.00 0.00 0.00 54 1025.0
20181018013516 50 0.0 3.0 0.00 0.00 0.00 54 1025.0
20181018013017 50 135 1.0 4.0 0.00 0.00 0.00 54 1025.0
20181018012516 51 112 1.0 4.0 0.00 0.00 0.00 53 1024.9
20181018012016 51 112 4.0 13.0 0.00 0.00 0.00 52 1025.0
20181018011516 51 112 3.0 9.0 0.00 0.00 0.00 53 1024.9
20181018011016 51 0.0 3.0 0.00 0.00 0.00 54 1024.8
20181018010517 51 0.0 3.0 0.00 0.00 0.00 53 1024.9
20181018010016 52 112 1.0 8.0 0.00 0.00 0.00 52 1024.9
20181018005517 52 90 2.0 10.0 0.00 0.00 0.00 51 1024.8
20181018005016 53 0.0 3.0 0.00 0.00 0.00 51 1024.8
20181018004517 53 0.0 3.0 0.00 0.00 0.00 50 1024.8
20181018004017 53 0.0 3.0 0.00 0.00 0.00 50 1024.8
20181018003517 53 112 1.0 5.0 0.00 0.00 0.00 50 1024.8
20181018003016 53 112 2.0 6.0 0.00 0.00 0.00 49 1024.7
20181018002516 54 112 3.0 7.0 0.00 0.00 0.00 49 1024.8
20181018002017 54 112 3.0 9.0 0.00 0.00 0.00 48 1024.8
20181018001516 55 112 1.0 5.0 0.00 0.00 0.00 47 1024.9
20181018001017 55 112 3.0 8.0 0.00 0.00 0.00 47 1024.9
20181018000516 55 112 1.0 3.0 0.00 0.00 0.00 47 1024.9
20181018000017 56 112 5.0 10.0 0.00 0.00 0.00 45 1024.9
20181017235516 56 112 3.0 10.0 0.00 0.00 0.00 46 1025.1
20181017235016 56 112 5.0 9.0 0.00 0.00 0.00 44 1025.0
20181017234516 57 112 4.0 8.0 0.00 0.00 0.00 43 1025.0
20181017234017 57 112 7.0 11.0 0.00 0.00 0.00 42 1025.2
20181017233516 58 112 5.0 12.0 0.00 0.00 0.00 41 1025.2
20181017233017 58 112 6.0 10.0 0.00 0.00 0.00 41 1025.0
20181017232516 58 90 4.0 8.0 0.00 0.00 0.00 40 1025.2
20181017232016 58 90 6.0 10.0 0.00 0.00 0.00 40 1025.0
20181017231516 59 112 6.0 9.0 0.00 0.00 0.00 40 1025.1
20181017231017 59 112 6.0 11.0 0.00 0.00 0.00 38 1025.0
20181017230516 59 112 6.0 10.0 0.00 0.00 0.00 39 1025.1
20181017230016 59 112 7.0 11.0 0.00 0.00 0.00 39 1025.2
20181017225516 59 112 6.0 11.0 0.00 0.00 0.00 38 1025.3
20181017225016 60 112 5.0 9.0 0.00 0.00 0.00 39 1025.4
20181017224516 60 112 5.0 11.0 0.00 0.00 0.00 37 1025.4
20181017224016 60 112 3.0 8.0 0.00 0.00 0.00 37 1025.6
20181017223516 60 0.0 5.0 0.00 0.00 0.00 38 1025.5
20181017223016 60 135 2.0 9.0 0.00 0.00 0.00 36 1025.6
20181017222516 60 135 1.0 6.0 0.00 0.00 0.00 38 1025.5
20181017222017 60 135 1.0 4.0 0.00 0.00 0.00 37 1025.6
20181017221516 60 135 1.0 6.0 0.00 0.00 0.00 38 1025.6
20181017221016 60 112 3.0 8.0 0.00 0.00 0.00 37 1025.7
20181017220516 60 135 2.0 9.0 0.00 0.00 0.00 37 1025.8
20181017220016 60 135 1.0 5.0 0.00 0.00 0.00 37 1025.8
20181017215516 60 112 5.0 10.0 0.00 0.00 0.00 37 1025.9
20181017215016 60 135 4.0 11.0 0.00 0.00 0.00 37 1026.0
20181017214516 60 135 2.0 7.0 0.00 0.00 0.00 38 1026.1
20181017214018 60 157 3.0 8.0 0.00 0.00 0.00 39 1026.1
20181017213516 59 112 4.0 8.0 0.00 0.00 0.00 39 1026.1
20181017213016 59 112 3.0 7.0 0.00 0.00 0.00 39 1026.1
20181017212516 59 135 4.0 11.0 0.00 0.00 0.00 39 1026.1
20181017212016 59 135 4.0 10.0 0.00 0.00 0.00 40 1026.1
20181017211516 59 135 1.0 6.0 0.00 0.00 0.00 39 1026.1
20181017211016 59 112 2.0 10.0 0.00 0.00 0.00 41 1026.3
20181017210516 59 112 6.0 11.0 0.00 0.00 0.00 41 1026.3
20181017210016 59 112 8.0 12.0 0.00 0.00 0.00 39 1026.4
20181017205516 59 135 5.0 15.0 0.00 0.00 0.00 40 1026.4
20181017205016 59 135 4.0 8.0 0.00 0.00 0.00 41 1026.5
20181017204516 58 112 7.0 14.0 0.00 0.00 0.00 40 1026.6
20181017204016 59 112 5.0 10.0 0.00 0.00 0.00 40 1026.7
20181017203517 58 112 3.0 9.0 0.00 0.00 0.00 42 1026.8
20181017203016 58 135 4.0 11.0 0.00 0.00 0.00 41 1026.9
20181017202516 58 157 4.0 10.0 0.00 0.00 0.00 40 1026.9
20181017202016 58 157 4.0 10.0 0.00 0.00 0.00 41 1027.0
20181017201516 57 135 2.0 7.0 0.00 0.00 0.00 41 1027.0